User: anonymous
Location: Brno
(49.2000°N, 16.6330°E)
Time: 10:03:41
(UTC+02:00)
Language:

Iridium 2 - Orbit

View from above orbital plane
View from above orbital plane
View from above satellite
View from above satellite

Ground track
Ground track

The orbit data is extracted from the following two-line orbital elements,

1 25527U 98066A   14202.86305920  .00000963  00000-0  60402-4 0  2966
2 25527 085.5388 295.5952 0010181 025.7084 112.9802 15.07939397857358
Epoch (UTC): 21 July 2014 20:42:48
Eccentricity: 0.0010181
inclination: 85.5388°
perigee height: 535 km
apogee height: 549 km
right ascension of ascending node: 295.5952°
argument of perigee: 25.7084°
revolutions per day: 15.07939397
mean anomaly at epoch: 112.9802°
orbit number at epoch: 85735

The dashed part of the orbit path shows where the satellite is in the earth's shadow,  

DLR